2020-12-18 00:07:49 r, 18.47m,0000000004Hz,0000133950c,0000000.291s, 010.6C,00002191
2020-12-18 00:17:49 r, 18.42m,0000000003Hz,0000127269c,0000000.276s, 010.6C,00002191
2020-12-18 00:27:50 r, 18.73m,0000000003Hz,0000168861c,0000000.366s, 010.6C,00002191
2020-12-18 00:37:51 r, 18.83m,0000000003Hz,0000184732c,0000000.401s, 010.6C,00002191
2020-12-18 00:47:49 r, 18.73m,0000000002Hz,0000168977c,0000000.367s, 010.3C,00002191
2020-12-18 00:57:50 r, 18.73m,0000000003Hz,0000169954c,0000000.369s, 010.3C,00002191
2020-12-18 01:07:50 r, 18.76m,0000000003Hz,0000174705c,0000000.379s, 010.3C,00002191
2020-12-18 01:17:49 r, 18.45m,0000000004Hz,0000130730c,0000000.284s, 010.6C,00002191
2020-12-18 01:27:51 r, 18.23m,0000000005Hz,0000106732c,0000000.232s, 010.6C,00002191
2020-12-18 01:37:49 r, 18.21m,0000000004Hz,0000104881c,0000000.228s, 010.6C,00002191
2020-12-18 01:47:48 r, 18.11m,0000000005Hz,0000094978c,0000000.206s, 010.6C,00002191
2020-12-18 01:57:51 r, 17.99m,0000000005Hz,0000085525c,0000000.186s, 010.6C,00002191
2020-12-18 02:07:50 r, 18.08m,0000000005Hz,0000092288c,0000000.200s, 010.6C,00002191
2020-12-18 02:17:49 r, 18.06m,0000000005Hz,0000091483c,0000000.199s, 010.6C,00002191
2020-12-18 02:27:50 r, 17.90m,0000000005Hz,0000079384c,0000000.172s, 010.9C,00002191
2020-12-18 02:37:50 r, 18.04m,0000000005Hz,0000089939c,0000000.195s, 010.9C,00002191
2020-12-18 02:47:49 r, 18.03m,0000000006Hz,0000088461c,0000000.192s, 010.9C,00002191
2020-12-18 02:57:50 r, 17.75m,0000000007Hz,0000069500c,0000000.151s, 010.9C,00002191
2020-12-18 03:07:49 r, 17.74m,0000000007Hz,0000068440c,0000000.149s, 010.9C,00002191
2020-12-18 03:17:49 r, 17.81m,0000000007Hz,0000073585c,0000000.160s, 010.9C,00002191
2020-12-18 03:27:50 r, 17.96m,0000000005Hz,0000083825c,0000000.182s, 010.9C,00002191
2020-12-18 03:37:49 r, 18.31m,0000000004Hz,0000114401c,0000000.248s, 010.9C,00002191
2020-12-18 03:47:48 r, 18.79m,0000000003Hz,0000178602c,0000000.388s, 010.9C,00002191
2020-12-18 03:57:51 r, 19.08m,0000000002Hz,0000233043c,0000000.506s, 010.9C,00002191
2020-12-18 04:07:49 r, 19.05m,0000000002Hz,0000226209c,0000000.491s, 010.9C,00002191
2020-12-18 04:17:49 r, 18.97m,0000000002Hz,0000211105c,0000000.458s, 010.9C,00002191
2020-12-18 04:27:51 r, 18.76m,0000000002Hz,0000173620c,0000000.377s, 010.9C,00002191
2020-12-18 04:37:49 r, 18.42m,0000000004Hz,0000127477c,0000000.277s, 010.9C,00002191
2020-12-18 04:47:49 r, 18.50m,0000000004Hz,0000136710c,0000000.297s, 010.9C,00002191
2020-12-18 04:57:49 r, 18.63m,0000000003Hz,0000153617c,0000000.333s, 011.2C,00002191
2020-12-18 05:07:50 r, 18.41m,0000000003Hz,0000125544c,0000000.272s, 011.2C,00002191
2020-12-18 05:17:49 r, 18.18m,0000000005Hz,0000101720c,0000000.221s, 011.2C,00002191
2020-12-18 05:27:50 r, 18.13m,0000000005Hz,0000097288c,0000000.211s, 011.2C,00002191
2020-12-18 05:37:49 r, 18.21m,0000000005Hz,0000104666c,0000000.227s, 011.2C,00002191
2020-12-18 05:47:48 r, 18.31m,0000000004Hz,0000115054c,0000000.250s, 011.2C,00002191
2020-12-18 05:57:49 r, 18.39m,0000000004Hz,0000123770c,0000000.269s, 011.2C,00002191
2020-12-18 06:07:51 r, 18.49m,0000000004Hz,0000135554c,0000000.294s, 011.2C,00002191
2020-12-18 06:17:48 r, 18.55m,0000000003Hz,0000143890c,0000000.312s, 011.2C,00002191
2020-12-18 06:27:51 r, 18.50m,0000000003Hz,0000136369c,0000000.296s, 011.2C,00002191
2020-12-18 06:37:49 r, 18.46m,0000000003Hz,0000131288c,0000000.285s, 011.2C,00002191
2020-12-18 06:47:48 r, 18.52m,0000000003Hz,0000139562c,0000000.303s, 011.2C,00002191
2020-12-18 06:57:51 r, 18.33m,0000000004Hz,0000116515c,0000000.253s, 011.2C,00002191
2020-12-18 07:07:49 r, 18.23m,0000000005Hz,0000106976c,0000000.232s, 011.2C,00002191
2020-12-18 07:17:48 r, 17.59m,0000000007Hz,0000059447c,0000000.129s, 011.2C,00002191
2020-12-18 07:27:49 r, 16.22m,0000000027Hz,0000016803c,0000000.036s, 011.2C,00002191
2020-12-18 07:37:49 r, 14.92m,0000000090Hz,0000005100c,0000000.011s, 010.9C,00002191
2020-12-18 07:47:48 r, 13.07m,0000000498Hz,0000000000c,0000000.000s, 010.9C,00002191
2020-12-18 07:57:50 r, 11.37m,0000002388Hz,0000000000c,0000000.000s, 010.9C,00002191
2020-12-18 08:07:49 r, 09.43m,0000014239Hz,0000000000c,0000000.000s, 011.2C,00002191
2020-12-18 08:17:48 r, 08.61m,0000030428Hz,0000000000c,0000000.000s, 010.9C,00002191
2020-12-18 08:27:51 r, 07.93m,0000057087Hz,0000000000c,0000000.000s, 011.2C,00002191
2020-12-18 08:37:49 r, 07.49m,0000085456Hz,0000000000c,0000000.000s, 011.2C,00002191
2020-12-18 08:47:48 r, 07.16m,0000116130Hz,0000000000c,0000000.000s, 011.2C,00002191
2020-12-18 08:57:51 r, 06.94m,0000142157Hz,0000000000c,0000000.000s, 011.2C,00002191
2020-12-18 09:07:49 r, 07.15m,0000117061Hz,0000000000c,0000000.000s, 011.2C,00002191
2020-12-18 09:17:48 r, 06.63m,0000187568Hz,0000000000c,0000000.000s, 011.6C,00002191
2020-12-18 09:27:48 r, 06.20m,0000281714Hz,0000000000c,0000000.000s, 011.2C,00002191
2020-12-18 09:37:50 r, 00.00m,0000575179Hz,0000000000c,0000000.000s, 011.6C,00002191
2020-12-18 09:47:49 r, 00.00m,0000598290Hz,0000000000c,0000000.000s, 011.6C,00002191
2020-12-18 09:57:48 r, 00.00m,0000598251Hz,0000000000c,0000000.000s, 011.2C,00002191
2020-12-18 10:07:51 r, 00.00m,0000598256Hz,0000000000c,0000000.000s, 010.9C,00002191
2020-12-18 10:17:49 r, 00.00m,0000598246Hz,0000000000c,0000000.000s, 010.6C,00002191
2020-12-18 10:27:49 r, 00.00m,0000598367Hz,0000000000c,0000000.000s, 010.6C,00002191
2020-12-18 10:37:51 r, 00.00m,0000598396Hz,0000000000c,0000000.000s, 010.6C,00002191
2020-12-18 10:47:49 r, 00.00m,0000598441Hz,0000000000c,0000000.000s, 010.3C,00002191
2020-12-18 10:57:48 r, 00.00m,0000598405Hz,0000000000c,0000000.000s, 010.3C,00002191
2020-12-18 11:07:49 r, 00.00m,0000598433Hz,0000000000c,0000000.000s, 010.3C,00002191
2020-12-18 11:17:50 r, 00.00m,0000598452Hz,0000000000c,0000000.000s, 009.6C,00002191
2020-12-18 11:27:48 r, 00.00m,0000598513Hz,0000000000c,0000000.000s, 009.3C,00002191
2020-12-18 11:37:50 r, 00.00m,0000598458Hz,0000000000c,0000000.000s, 009.0C,00002191
2020-12-18 11:47:49 r, 00.00m,0000598478Hz,0000000000c,0000000.000s, 009.0C,00002191
2020-12-18 11:57:48 r, 00.00m,0000598485Hz,0000000000c,0000000.000s, 008.7C,00002191
2020-12-18 12:07:49 r, 00.00m,0000598509Hz,0000000000c,0000000.000s, 008.7C,00002191
2020-12-18 12:17:51 r, 00.00m,0000598499Hz,0000000000c,0000000.000s, 008.7C,00002191
2020-12-18 12:27:48 r, 00.00m,0000598585Hz,0000000000c,0000000.000s, 008.7C,00002191
2020-12-18 12:37:51 r, 00.00m,0000598548Hz,0000000000c,0000000.000s, 008.7C,00002191
2020-12-18 12:47:49 r, 00.00m,0000598544Hz,0000000000c,0000000.000s, 008.7C,00002191
2020-12-18 12:57:48 r, 00.00m,0000598500Hz,0000000000c,0000000.000s, 008.3C,00002191
2020-12-18 13:07:51 r, 00.00m,0000598532Hz,0000000000c,0000000.000s, 008.0C,00002191
2020-12-18 13:17:49 r, 00.00m,0000598741Hz,0000000000c,0000000.000s, 007.7C,00002191
2020-12-18 13:27:48 r, 00.00m,0000598632Hz,0000000000c,0000000.000s, 007.7C,00002191
2020-12-18 13:37:49 r, 00.00m,0000598805Hz,0000000000c,0000000.000s, 006.4C,00002191
2020-12-18 13:47:50 r, 00.00m,0000598890Hz,0000000000c,0000000.000s, 005.8C,00002191
2020-12-18 13:57:48 r, 00.00m,0000598947Hz,0000000000c,0000000.000s, 005.4C,00002191
2020-12-18 14:07:50 r, 00.00m,0000598886Hz,0000000000c,0000000.000s, 005.1C,00002191
2020-12-18 14:17:49 r, 00.00m,0000598856Hz,0000000000c,0000000.000s, 004.8C,00002191
2020-12-18 14:27:48 r, 00.00m,0000598938Hz,0000000000c,0000000.000s, 004.5C,00002191
2020-12-18 14:37:49 r, 00.00m,0000598994Hz,0000000000c,0000000.000s, 004.5C,00002191
2020-12-18 14:47:51 r, 00.00m,0000598869Hz,0000000000c,0000000.000s, 004.1C,00002191
2020-12-18 14:57:48 r, 00.00m,0000598832Hz,0000000000c,0000000.000s, 004.1C,00002191
2020-12-18 15:07:51 r, 00.00m,0000598916Hz,0000000000c,0000000.000s, 004.1C,00002191
2020-12-18 15:17:49 r, 00.00m,0000553839Hz,0000000000c,0000000.000s, 003.8C,00002191
2020-12-18 15:27:48 r, 00.00m,0000498427Hz,0000000000c,0000000.000s, 003.5C,00002191
2020-12-18 15:37:51 r, 00.00m,0000464123Hz,0000000000c,0000000.000s, 003.5C,00002191
2020-12-18 15:47:49 r, 05.85m,0000386940Hz,0000000000c,0000000.000s, 004.1C,00002191
2020-12-18 15:57:48 r, 06.11m,0000306310Hz,0000000000c,0000000.000s, 004.1C,00002191
2020-12-18 16:07:49 r, 06.44m,0000223841Hz,0000000000c,0000000.000s, 003.8C,00002191
2020-12-18 16:17:51 r, 06.92m,0000145038Hz,0000000000c,0000000.000s, 003.5C,00002191
2020-12-18 16:27:48 r, 07.59m,0000078296Hz,0000000000c,0000000.000s, 003.2C,00002191
2020-12-18 16:37:50 r, 08.55m,0000032186Hz,0000000000c,0000000.000s, 002.5C,00002191
2020-12-18 16:47:49 r, 09.91m,0000009201Hz,0000000000c,0000000.000s, 001.9C,00002191
2020-12-18 16:57:48 r, 11.69m,0000001783Hz,0000000000c,0000000.000s, 001.6C,00002191
2020-12-18 17:07:51 r, 13.57m,0000000316Hz,0000000000c,0000000.000s, 001.2C,00002191
2020-12-18 17:17:49 r, 15.44m,0000000056Hz,0000008233c,0000000.018s, 000.9C,00002191
2020-12-18 17:27:48 r, 17.12m,0000000012Hz,0000038770c,0000000.084s, 000.6C,00002191
2020-12-18 17:37:51 r, 18.48m,0000000004Hz,0000136027c,0000000.295s, 000.3C,00002191
2020-12-18 17:47:49 r, 19.49m,0000000002Hz,0000339989c,0000000.738s, 000.3C,00002191
2020-12-18 17:57:48 r, 19.99m,0000000001Hz,0000536691c,0000001.165s, 000.1C,00002191
2020-12-18 18:07:49 r, 20.18m,0000000001Hz,0000643201c,0000001.396s, 000.1C,00002191
2020-12-18 18:17:50 r, 20.28m,0000000001Hz,0000707694c,0000001.536s,-000.4C,00002191
2020-12-18 18:27:48 r, 20.31m,0000000001Hz,0000722830c,0000001.569s,-000.7C,00002191
2020-12-18 18:37:50 r, 20.30m,0000000001Hz,0000720274c,0000001.563s,-000.7C,00002191
2020-12-18 18:47:49 r, 20.33m,0000000000Hz,0000729840c,0000001.584s,-001.0C,00002191
2020-12-18 18:57:48 r, 20.33m,0000000001Hz,0000731615c,0000001.588s,-001.0C,00002191
2020-12-18 19:07:49 r, 20.33m,0000000001Hz,0000730950c,0000001.586s,-001.0C,00002191
2020-12-18 19:17:51 r, 20.32m,0000000001Hz,0000725972c,0000001.575s,-001.0C,00002191
2020-12-18 19:27:48 r, 20.32m,0000000000Hz,0000727911c,0000001.580s,-001.0C,00002191
2020-12-18 19:37:51 r, 20.33m,0000000001Hz,0000733840c,0000001.593s,-001.3C,00002191
2020-12-18 19:47:49 r, 20.34m,0000000000Hz,0000738205c,0000001.602s,-001.7C,00002191
2020-12-18 19:57:48 r, 20.34m,0000000000Hz,0000740055c,0000001.606s,-002.0C,00002191
2020-12-18 20:07:51 r, 20.35m,0000000001Hz,0000746988c,0000001.621s,-002.3C,00002191
2020-12-18 20:17:49 r, 20.36m,0000000001Hz,0000751769c,0000001.631s,-002.6C,00002191
2020-12-18 20:27:48 r, 20.36m,0000000000Hz,0000757271c,0000001.643s,-002.6C,00002191
2020-12-18 20:37:49 r, 20.38m,0000000001Hz,0000764490c,0000001.659s,-002.6C,00002191
2020-12-18 20:47:50 r, 20.39m,0000000000Hz,0000776787c,0000001.686s,-002.6C,00002191
2020-12-18 20:57:48 r, 20.40m,0000000001Hz,0000783632c,0000001.701s,-002.6C,00002191
2020-12-18 21:07:50 r, 20.42m,0000000001Hz,0000796134c,0000001.728s,-003.0C,00002191
2020-12-18 21:17:49 r, 20.41m,0000000001Hz,0000788127c,0000001.710s,-003.0C,00002191
2020-12-18 21:27:48 r, 20.41m,0000000001Hz,0000789413c,0000001.713s,-003.0C,00002191
2020-12-18 21:37:49 r, 20.41m,0000000001Hz,0000789054c,0000001.712s,-003.0C,00002191
2020-12-18 21:47:51 r, 20.41m,0000000001Hz,0000793364c,0000001.722s,-003.0C,00002191
2020-12-18 21:57:48 r, 20.41m,0000000000Hz,0000793313c,0000001.722s,-003.0C,00002191
2020-12-18 22:07:51 r, 20.43m,0000000000Hz,0000799058c,0000001.734s,-003.0C,00002191
2020-12-18 22:17:49 r, 20.43m,0000000001Hz,0000800729c,0000001.738s,-003.0C,00002191
2020-12-18 22:27:48 r, 20.44m,0000000000Hz,0000809673c,0000001.757s,-003.0C,00002191
2020-12-18 22:37:51 r, 20.44m,0000000000Hz,0000807596c,0000001.753s,-003.0C,00002191
2020-12-18 22:47:49 r, 20.44m,0000000000Hz,0000808430c,0000001.754s,-003.0C,00002191
2020-12-18 22:57:48 r, 20.44m,0000000001Hz,0000810590c,0000001.759s,-003.3C,00002191
2020-12-18 23:07:49 r, 20.44m,0000000000Hz,0000814399c,0000001.767s,-003.3C,00002191
2020-12-18 23:17:49 r, 20.44m,0000000000Hz,0000814307c,0000001.767s,-003.3C,00002191
2020-12-18 23:27:48 r, 20.44m,0000000001Hz,0000812496c,0000001.763s,-003.6C,00002191
2020-12-18 23:37:50 r, 20.45m,0000000001Hz,0000815269c,0000001.769s,-003.6C,00002191
2020-12-18 23:47:49 r, 20.45m,0000000000Hz,0000817579c,0000001.774s,-003.6C,00002191
2020-12-18 23:57:48 r, 20.46m,0000000000Hz,0000824024c,0000001.788s,-003.6C,00002191
